AAL1776 KFLL-KATL

Flight info

Callsign AAL1776
Flight time 1h 28m
Altitude 32000
Route FRSBE2 STYMY Q77 MJAMS/N0466F330 Q77 SHRKS/N0466F320 LAIRI LARZZ JJEDI4
Aircraft B38M/M-SDE1FGHILORVWXY/HB1

Departure

Time 2026-05-05 19:02
Airport Fort Lauderdale Hollywood International Airport (KFLL)

Arrival

Time 2026-05-05 20:30
Airport Hartsfield Jackson Atlanta International Airport (KATL)
Time Latitude Longitude Altitude Speed Heading
2026-05-05 18:32 26.06961 -80.14144 23 ft 0 kts 281°
2026-05-05 18:40 26.06961 -80.14142 23 ft 2 kts 281°
2026-05-05 18:40 26.06960 -80.14133 23 ft 3 kts 279°
2026-05-05 18:40 26.06957 -80.14111 27 ft 3 kts 270°
2026-05-05 18:41 26.06960 -80.14091 26 ft 3 kts 238°
2026-05-05 18:41 26.06968 -80.14083 28 ft 2 kts 181°
2026-05-05 18:41 26.06975 -80.14083 28 ft 0 kts 180°
2026-05-05 18:50 26.06972 -80.14083 28 ft 1 kts 180°
2026-05-05 18:51 26.06952 -80.14083 25 ft 4 kts 180°
2026-05-05 18:51 26.06908 -80.14083 23 ft 8 kts 180°
2026-05-05 18:51 26.06843 -80.14082 21 ft 10 kts 180°
2026-05-05 18:51 26.06788 -80.14089 21 ft 4 kts 196°
2026-05-05 18:52 26.06782 -80.14091 21 ft 1 kts 199°
2026-05-05 18:52 26.06774 -80.14094 20 ft 0 kts 202°
2026-05-05 18:52 26.06774 -80.14095 20 ft 1 kts 202°
2026-05-05 18:53 26.06764 -80.14103 20 ft 3 kts 224°
2026-05-05 18:53 26.06752 -80.14134 20 ft 6 kts 261°
2026-05-05 18:53 26.06750 -80.14189 20 ft 8 kts 269°
2026-05-05 18:53 26.06750 -80.14260 20 ft 10 kts 270°
2026-05-05 18:54 26.06751 -80.14343 21 ft 12 kts 271°
2026-05-05 18:54 26.06752 -80.14448 19 ft 15 kts 271°
2026-05-05 18:54 26.06764 -80.14575 18 ft 18 kts 272°
2026-05-05 18:54 26.06765 -80.14718 20 ft 18 kts 270°
2026-05-05 18:55 26.06766 -80.14854 24 ft 16 kts 270°
2026-05-05 18:55 26.06767 -80.14987 25 ft 18 kts 270°
2026-05-05 18:55 26.06768 -80.15078 25 ft 5 kts 272°
2026-05-05 18:55 26.06783 -80.15118 27 ft 6 kts 317°
2026-05-05 18:56 26.06828 -80.15131 26 ft 7 kts 359°
2026-05-05 18:56 26.06888 -80.15131 29 ft 10 kts
2026-05-05 18:56 26.06959 -80.15130 27 ft 11 kts
2026-05-05 18:56 26.07046 -80.15129 26 ft 14 kts
2026-05-05 18:57 26.07153 -80.15128 27 ft 17 kts
2026-05-05 18:57 26.07285 -80.15127 25 ft 20 kts
2026-05-05 18:57 26.07433 -80.15126 23 ft 22 kts
2026-05-05 18:57 26.07531 -80.15130 21 ft 11 kts 342°
2026-05-05 18:58 26.07563 -80.15200 19 ft 12 kts 269°
2026-05-05 18:58 26.07563 -80.15300 19 ft 14 kts 270°
2026-05-05 18:58 26.07564 -80.15418 19 ft 16 kts 270°
2026-05-05 18:58 26.07565 -80.15544 19 ft 17 kts 271°
2026-05-05 18:59 26.07566 -80.15675 21 ft 17 kts 270°
2026-05-05 18:59 26.07567 -80.15809 24 ft 17 kts 270°
2026-05-05 18:59 26.07569 -80.15944 26 ft 18 kts 270°
2026-05-05 18:59 26.07569 -80.16087 27 ft 19 kts 269°
2026-05-05 19:00 26.07569 -80.16239 28 ft 20 kts 270°
2026-05-05 19:00 26.07569 -80.16403 28 ft 21 kts 270°
2026-05-05 19:00 26.07570 -80.16503 27 ft 10 kts 276°
2026-05-05 19:00 26.07613 -80.16560 27 ft 11 kts 344°
2026-05-05 19:01 26.07683 -80.16553 25 ft 9 kts 34°
2026-05-05 19:01 26.07693 -80.16517 29 ft 0 kts 88°
2026-05-05 19:01 26.07694 -80.16488 25 ft 24 kts 88°
2026-05-05 19:02 26.07692 -80.15993 26 ft 106 kts 90°
2026-05-05 19:02 26.07721 -80.14911 113 ft 166 kts 88°
2026-05-05 19:02 26.07674 -80.13585 779 ft 172 kts 93°
2026-05-05 19:02 26.07588 -80.12271 1803 ft 170 kts 93°
2026-05-05 19:03 26.07442 -80.10906 2563 ft 190 kts 97°
2026-05-05 19:03 26.07412 -80.09320 3023 ft 220 kts 81°
2026-05-05 19:03 26.07793 -80.07589 3733 ft 235 kts 69°
2026-05-05 19:03 26.08542 -80.06018 4879 ft 228 kts 47°
2026-05-05 19:04 26.09774 -80.04900 5729 ft 235 kts 23°
2026-05-05 19:04 26.11351 -80.04346 6562 ft 239 kts
2026-05-05 19:04 26.13000 -80.04138 7567 ft 244 kts
2026-05-05 19:04 26.14752 -80.04058 8325 ft 261 kts 348°
2026-05-05 19:05 26.16510 -80.04731 9085 ft 276 kts 334°
2026-05-05 19:05 26.18313 -80.05545 9961 ft 288 kts 336°
2026-05-05 19:05 26.20211 -80.06348 10804 ft 299 kts 335°
2026-05-05 19:05 26.21997 -80.07609 11284 ft 311 kts 311°
2026-05-05 19:06 26.23175 -80.09649 11932 ft 320 kts 291°
2026-05-05 19:06 26.24023 -80.11982 12697 ft 328 kts 291°
2026-05-05 19:06 26.24880 -80.14333 13698 ft 328 kts 291°
2026-05-05 19:06 26.25856 -80.16646 14443 ft 333 kts 301°
2026-05-05 19:07 26.27113 -80.18819 15250 ft 334 kts 301°
2026-05-05 19:07 26.28366 -80.21012 15953 ft 337 kts 302°
2026-05-05 19:07 26.29628 -80.23228 16660 ft 340 kts 302°
2026-05-05 19:07 26.30894 -80.25455 17349 ft 343 kts 302°
2026-05-05 19:08 26.32174 -80.27709 18019 ft 346 kts 302°
2026-05-05 19:08 26.33466 -80.29988 18638 ft 349 kts 302°
2026-05-05 19:08 26.34749 -80.32251 19210 ft 351 kts 302°
2026-05-05 19:08 26.36056 -80.34557 19793 ft 352 kts 302°
2026-05-05 19:09 26.37370 -80.36877 20359 ft 354 kts 302°
2026-05-05 19:09 26.38691 -80.39210 20919 ft 357 kts 302°
2026-05-05 19:09 26.40020 -80.41558 21473 ft 359 kts 302°
2026-05-05 19:09 26.41354 -80.43916 22036 ft 361 kts 302°
2026-05-05 19:10 26.42699 -80.46296 22575 ft 363 kts 301°
2026-05-05 19:10 26.44050 -80.48688 23094 ft 366 kts 301°
2026-05-05 19:10 26.45410 -80.51096 23599 ft 368 kts 301°
2026-05-05 19:10 26.46790 -80.53515 24014 ft 371 kts 304°
2026-05-05 19:11 26.48569 -80.55613 24376 ft 377 kts 321°
2026-05-05 19:11 26.50890 -80.57023 24788 ft 385 kts 336°
2026-05-05 19:11 26.53458 -80.57939 25220 ft 389 kts 338°
2026-05-05 19:11 26.56057 -80.58823 25639 ft 392 kts 339°
2026-05-05 19:12 26.58674 -80.59686 26095 ft 393 kts 339°
2026-05-05 19:12 26.61305 -80.60538 26505 ft 395 kts 339°
2026-05-05 19:12 26.63957 -80.61386 26890 ft 398 kts 339°
2026-05-05 19:12 26.66595 -80.62227 27286 ft 400 kts 339°
2026-05-05 19:13 26.69275 -80.63080 27674 ft 402 kts 339°
2026-05-05 19:13 26.71975 -80.63940 28049 ft 404 kts 339°
2026-05-05 19:13 26.74689 -80.64804 28437 ft 407 kts 339°
2026-05-05 19:13 26.77413 -80.65672 28812 ft 409 kts 339°
2026-05-05 19:14 26.80161 -80.66547 29178 ft 411 kts 339°
2026-05-05 19:14 26.82919 -80.67427 29538 ft 413 kts 339°
2026-05-05 19:14 26.85694 -80.68312 29902 ft 416 kts 339°
2026-05-05 19:14 26.88489 -80.69205 30249 ft 418 kts 339°
2026-05-05 19:15 26.91227 -80.70122 30584 ft 417 kts 336°
2026-05-05 19:15 26.93971 -80.71176 30901 ft 418 kts 336°
2026-05-05 19:15 26.96735 -80.72225 31014 ft 421 kts 337°
2026-05-05 19:15 26.99508 -80.73271 31011 ft 419 kts 337°
2026-05-05 19:16 27.05026 -80.75348 31006 ft 417 kts 337°
2026-05-05 19:16 27.10541 -80.77426 31007 ft 418 kts 337°
2026-05-05 19:17 27.16052 -80.79505 31002 ft 417 kts 337°
2026-05-05 19:17 27.21527 -80.81572 31000 ft 417 kts 336°
2026-05-05 19:18 27.27023 -80.83649 31003 ft 417 kts 336°
2026-05-05 19:18 27.32505 -80.85758 31002 ft 415 kts 335°
2026-05-05 19:19 27.37939 -80.88003 31009 ft 416 kts 335°
2026-05-05 19:19 27.43371 -80.90234 31021 ft 416 kts 335°
2026-05-05 19:20 27.48799 -80.92465 31013 ft 415 kts 335°
2026-05-05 19:20 27.54217 -80.94694 31022 ft 414 kts 335°
2026-05-05 19:21 27.59630 -80.96923 31021 ft 414 kts 335°
2026-05-05 19:21 27.65037 -80.99153 31020 ft 414 kts 335°
2026-05-05 19:22 27.70412 -81.01371 31019 ft 414 kts 335°
2026-05-05 19:22 27.75825 -81.03608 31015 ft 414 kts 335°
2026-05-05 19:23 27.81245 -81.05849 31026 ft 414 kts 335°
2026-05-05 19:23 27.86664 -81.08093 31021 ft 414 kts 335°
2026-05-05 19:24 27.92073 -81.10335 31023 ft 414 kts 335°
2026-05-05 19:24 27.97447 -81.12565 31023 ft 414 kts 335°
2026-05-05 19:25 28.02849 -81.14811 31036 ft 413 kts 334°
2026-05-05 19:25 28.08075 -81.17500 31041 ft 412 kts 331°
2026-05-05 19:26 28.13300 -81.20184 31040 ft 412 kts 331°
2026-05-05 19:26 28.18523 -81.22854 31047 ft 412 kts 331°
2026-05-05 19:27 28.23748 -81.25527 31038 ft 411 kts 331°
2026-05-05 19:27 28.28933 -81.28182 31039 ft 412 kts 331°
2026-05-05 19:28 28.34142 -81.30850 31031 ft 410 kts 332°
2026-05-05 19:28 28.39344 -81.33506 31058 ft 410 kts 331°
2026-05-05 19:29 28.44548 -81.36167 31040 ft 409 kts 331°
2026-05-05 19:29 28.49748 -81.38828 31041 ft 409 kts 331°
2026-05-05 19:30 28.54942 -81.41488 31035 ft 409 kts 331°
2026-05-05 19:30 28.60137 -81.44152 31037 ft 409 kts 331°
2026-05-05 19:31 28.65331 -81.46819 31047 ft 409 kts 331°
2026-05-05 19:31 28.70522 -81.49488 31077 ft 409 kts 331°
2026-05-05 19:32 28.75684 -81.52143 31033 ft 408 kts 331°
2026-05-05 19:32 28.80872 -81.54816 31045 ft 409 kts 331°
2026-05-05 19:33 28.86055 -81.57488 31040 ft 409 kts 331°
2026-05-05 19:33 28.91244 -81.60155 31038 ft 410 kts 333°
2026-05-05 19:34 28.94035 -81.60956 31015 ft 418 kts 348°
2026-05-05 19:34 28.96943 -81.61233 31037 ft 419 kts 348°
2026-05-05 19:35 29.05668 -81.62097 31043 ft 420 kts 348°
2026-05-05 19:35 29.11487 -81.62636 31041 ft 419 kts 348°
2026-05-05 19:36 29.17274 -81.63168 31043 ft 420 kts 348°
2026-05-05 19:36 29.23101 -81.63702 31042 ft 420 kts 348°
2026-05-05 19:37 29.28927 -81.64237 31070 ft 421 kts 348°
2026-05-05 19:37 29.34760 -81.64772 31052 ft 420 kts 348°
2026-05-05 19:38 29.40591 -81.65308 31047 ft 420 kts 348°
2026-05-05 19:38 29.46426 -81.65845 31044 ft 419 kts 348°
2026-05-05 19:39 29.52241 -81.66381 31042 ft 420 kts 348°
2026-05-05 19:39 29.57078 -81.66827 31080 ft 420 kts 348°
2026-05-05 19:40 29.62907 -81.67366 31047 ft 420 kts 348°
2026-05-05 19:40 29.69680 -81.67992 31049 ft 420 kts 348°
2026-05-05 19:41 29.74566 -81.68444 31057 ft 420 kts 348°
2026-05-05 19:41 29.80357 -81.68981 31050 ft 420 kts 348°
2026-05-05 19:42 29.86189 -81.69522 31064 ft 420 kts 348°
2026-05-05 19:42 29.92007 -81.70062 31044 ft 420 kts 348°
2026-05-05 19:43 29.97834 -81.70604 31051 ft 420 kts 348°
2026-05-05 19:43 30.03656 -81.71146 31051 ft 419 kts 348°
2026-05-05 19:44 30.09486 -81.71689 31050 ft 420 kts 348°
2026-05-05 19:44 30.15310 -81.72233 31083 ft 420 kts 348°
2026-05-05 19:45 30.21136 -81.72777 31059 ft 420 kts 348°
2026-05-05 19:45 30.26920 -81.73318 31048 ft 420 kts 348°
2026-05-05 19:46 30.32750 -81.73864 31048 ft 420 kts 348°
2026-05-05 19:46 30.38577 -81.74410 31055 ft 420 kts 348°
2026-05-05 19:47 30.44401 -81.74957 31032 ft 420 kts 348°
2026-05-05 19:47 30.50229 -81.75505 31047 ft 420 kts 348°
2026-05-05 19:48 30.56052 -81.76053 31047 ft 420 kts 348°
2026-05-05 19:48 30.61843 -81.76782 31028 ft 410 kts 338°
2026-05-05 19:49 30.66947 -81.79408 31020 ft 404 kts 329°
2026-05-05 19:49 30.72008 -81.82258 31061 ft 404 kts 329°
2026-05-05 19:50 30.77042 -81.85157 31048 ft 404 kts 328°
2026-05-05 19:50 30.82076 -81.88071 30999 ft 403 kts 328°
2026-05-05 19:51 30.87068 -81.90965 31027 ft 404 kts 328°
2026-05-05 19:51 30.92100 -81.93886 31032 ft 404 kts 328°
2026-05-05 19:52 30.97121 -81.96805 31020 ft 403 kts 328°
2026-05-05 19:52 31.02149 -81.99732 31032 ft 405 kts 328°
2026-05-05 19:53 31.07189 -82.02668 31025 ft 405 kts 328°
2026-05-05 19:53 31.12234 -82.05611 31025 ft 405 kts 328°
2026-05-05 19:54 31.17278 -82.08556 31025 ft 405 kts 328°
2026-05-05 19:54 31.22321 -82.11505 31026 ft 405 kts 328°
2026-05-05 19:55 31.27334 -82.14440 31023 ft 405 kts 328°
2026-05-05 19:55 31.32384 -82.17400 31038 ft 406 kts 328°
2026-05-05 19:56 31.37440 -82.20367 31027 ft 406 kts 328°
2026-05-05 19:56 31.42499 -82.23340 31025 ft 407 kts 328°
2026-05-05 19:57 31.47558 -82.26316 31019 ft 407 kts 328°
2026-05-05 19:57 31.52617 -82.29296 31022 ft 407 kts 328°
2026-05-05 19:58 31.57648 -82.32262 31042 ft 407 kts 328°
2026-05-05 19:58 31.62705 -82.35248 31015 ft 406 kts 328°
2026-05-05 19:59 31.67756 -82.38234 31013 ft 406 kts 328°
2026-05-05 19:59 31.72810 -82.41226 31007 ft 406 kts 328°
2026-05-05 20:00 31.77844 -82.44209 31009 ft 405 kts 328°
2026-05-05 20:00 31.82887 -82.47200 31015 ft 405 kts 328°
2026-05-05 20:01 31.87921 -82.50191 31045 ft 406 kts 328°
2026-05-05 20:01 31.92939 -82.53175 31030 ft 407 kts 328°
2026-05-05 20:02 31.97692 -82.56644 31038 ft 397 kts 314°
2026-05-05 20:02 32.01915 -82.60902 31022 ft 400 kts 316°
2026-05-05 20:03 32.06138 -82.65183 31020 ft 400 kts 316°
2026-05-05 20:03 32.10341 -82.69471 31006 ft 400 kts 316°
2026-05-05 20:04 32.14547 -82.73768 31020 ft 399 kts 316°
2026-05-05 20:04 32.18735 -82.78054 31000 ft 398 kts 316°
2026-05-05 20:05 32.22907 -82.82328 31007 ft 399 kts 315°
2026-05-05 20:05 32.27100 -82.86629 31009 ft 399 kts 315°
2026-05-05 20:06 32.31263 -82.90905 30916 ft 398 kts 315°
2026-05-05 20:06 32.33350 -82.93053 30167 ft 398 kts 315°
2026-05-05 20:06 32.35431 -82.95192 29598 ft 394 kts 315°
2026-05-05 20:06 32.37487 -82.97307 29073 ft 388 kts 315°
2026-05-05 20:07 32.39504 -82.99380 28785 ft 384 kts 315°
2026-05-05 20:07 32.41551 -83.01485 28453 ft 393 kts 315°
2026-05-05 20:07 32.43625 -83.03621 28019 ft 396 kts 316°
2026-05-05 20:07 32.45693 -83.05750 27380 ft 392 kts 316°
2026-05-05 20:08 32.47746 -83.07866 26781 ft 390 kts 316°
2026-05-05 20:08 32.49788 -83.09971 26179 ft 388 kts 316°
2026-05-05 20:08 32.51817 -83.12064 25591 ft 389 kts 316°
2026-05-05 20:08 32.53907 -83.14222 24952 ft 410 kts 316°
2026-05-05 20:09 32.56116 -83.16505 24266 ft 428 kts 316°
2026-05-05 20:09 32.58321 -83.18783 23699 ft 421 kts 316°
2026-05-05 20:09 32.60520 -83.21062 22871 ft 418 kts 316°
2026-05-05 20:09 32.62684 -83.23306 22266 ft 403 kts 316°
2026-05-05 20:10 32.64742 -83.25442 21736 ft 384 kts 316°
2026-05-05 20:10 32.66716 -83.27493 21202 ft 369 kts 316°
2026-05-05 20:10 32.68641 -83.29493 20701 ft 366 kts 316°
2026-05-05 20:10 32.70548 -83.31477 20185 ft 363 kts 316°
2026-05-05 20:11 32.72428 -83.33432 19701 ft 362 kts 316°
2026-05-05 20:11 32.74320 -83.35402 19207 ft 361 kts 316°
2026-05-05 20:11 32.76204 -83.37364 18728 ft 360 kts 316°
2026-05-05 20:11 32.78085 -83.39325 18257 ft 358 kts 316°
2026-05-05 20:12 32.79951 -83.41272 17694 ft 357 kts 316°
2026-05-05 20:12 32.81816 -83.43218 17197 ft 355 kts 316°
2026-05-05 20:12 32.83670 -83.45154 16728 ft 354 kts 316°
2026-05-05 20:12 32.85521 -83.47087 16274 ft 353 kts 316°
2026-05-05 20:13 32.87359 -83.49009 15830 ft 352 kts 316°
2026-05-05 20:13 32.89195 -83.50929 15387 ft 350 kts 316°
2026-05-05 20:13 32.91022 -83.52841 14989 ft 348 kts 316°
2026-05-05 20:13 32.92816 -83.54718 14802 ft 340 kts 316°
2026-05-05 20:14 32.94572 -83.56558 14611 ft 332 kts 316°
2026-05-05 20:14 32.96302 -83.58369 14211 ft 331 kts 316°
2026-05-05 20:14 32.98004 -83.60151 13799 ft 329 kts 316°
2026-05-05 20:14 32.99742 -83.61971 13379 ft 328 kts 315°
2026-05-05 20:15 33.01427 -83.63738 12985 ft 326 kts 315°
2026-05-05 20:15 33.03132 -83.65525 12597 ft 326 kts 315°
2026-05-05 20:15 33.04833 -83.67311 12227 ft 325 kts 315°
2026-05-05 20:15 33.06529 -83.69092 11845 ft 324 kts 315°
2026-05-05 20:16 33.08203 -83.70850 11590 ft 313 kts 315°
2026-05-05 20:16 33.09786 -83.72514 11463 ft 294 kts 315°
2026-05-05 20:16 33.11298 -83.74103 11334 ft 288 kts 315°
2026-05-05 20:16 33.12793 -83.75677 11190 ft 285 kts 315°
2026-05-05 20:17 33.14283 -83.77248 11029 ft 286 kts 315°
2026-05-05 20:17 33.15775 -83.78822 10705 ft 286 kts 315°
2026-05-05 20:17 33.17254 -83.80385 10386 ft 282 kts 315°
2026-05-05 20:17 33.18699 -83.81912 10167 ft 278 kts 314°
2026-05-05 20:18 33.20054 -83.83506 10013 ft 271 kts 311°
2026-05-05 20:18 33.21382 -83.85092 9751 ft 271 kts 311°
2026-05-05 20:18 33.22717 -83.86682 9450 ft 271 kts 311°
2026-05-05 20:18 33.24059 -83.88275 9137 ft 272 kts 312°
2026-05-05 20:19 33.25403 -83.89870 8828 ft 272 kts 311°
2026-05-05 20:19 33.26745 -83.91460 8541 ft 271 kts 311°
2026-05-05 20:19 33.28084 -83.93049 8262 ft 271 kts 311°
2026-05-05 20:19 33.29423 -83.94639 8009 ft 270 kts 311°
2026-05-05 20:20 33.30736 -83.96208 7984 ft 270 kts 311°
2026-05-05 20:20 33.32065 -83.97800 7933 ft 270 kts 311°
2026-05-05 20:20 33.33392 -83.99388 7901 ft 270 kts 311°
2026-05-05 20:20 33.34714 -84.00972 7858 ft 268 kts 311°
2026-05-05 20:21 33.36188 -84.02346 7775 ft 273 kts 332°
2026-05-05 20:21 33.38050 -84.02852 7736 ft 280 kts 355°
2026-05-05 20:21 33.40008 -84.02909 7736 ft 282 kts 355°
2026-05-05 20:21 33.41981 -84.02859 7691 ft 284 kts
2026-05-05 20:22 33.43910 -84.02568 7623 ft 273 kts
2026-05-05 20:22 33.45742 -84.02308 7497 ft 259 kts
2026-05-05 20:22 33.47496 -84.02070 7430 ft 248 kts
2026-05-05 20:22 33.49209 -84.01847 7396 ft 247 kts
2026-05-05 20:23 33.50893 -84.01634 7358 ft 245 kts
2026-05-05 20:23 33.52565 -84.01427 7307 ft 239 kts
2026-05-05 20:23 33.54270 -84.01216 7165 ft 254 kts
2026-05-05 20:23 33.56065 -84.00997 7063 ft 262 kts
2026-05-05 20:24 33.57896 -84.00772 6992 ft 265 kts
2026-05-05 20:24 33.59730 -84.00704 6968 ft 262 kts 346°
2026-05-05 20:24 33.61359 -84.01530 6965 ft 253 kts 317°
2026-05-05 20:24 33.62462 -84.03147 7000 ft 252 kts 291°
2026-05-05 20:25 33.62901 -84.05131 7004 ft 250 kts 271°
2026-05-05 20:25 33.62999 -84.07255 6974 ft 252 kts 269°
2026-05-05 20:25 33.63061 -84.09334 6933 ft 254 kts 268°
2026-05-05 20:25 33.63102 -84.11482 6523 ft 261 kts 268°
2026-05-05 20:26 33.63128 -84.13656 6032 ft 259 kts 267°
2026-05-05 20:26 33.63147 -84.15808 5567 ft 256 kts 266°
2026-05-05 20:26 33.63158 -84.17935 5093 ft 253 kts 266°
2026-05-05 20:26 33.63168 -84.20028 4705 ft 248 kts 266°
2026-05-05 20:27 33.63175 -84.22075 4319 ft 243 kts 265°
2026-05-05 20:27 33.63179 -84.24080 3954 ft 237 kts 265°
2026-05-05 20:27 33.63180 -84.26028 3614 ft 230 kts 266°
2026-05-05 20:27 33.63179 -84.27915 3304 ft 223 kts 265°
2026-05-05 20:28 33.63180 -84.29731 3058 ft 216 kts 266°
2026-05-05 20:28 33.63183 -84.31477 2817 ft 208 kts 264°
2026-05-05 20:28 33.63184 -84.33208 2495 ft 203 kts 264°
2026-05-05 20:28 33.63187 -84.34829 2226 ft 184 kts 264°
2026-05-05 20:29 33.63190 -84.36302 1997 ft 170 kts 261°
2026-05-05 20:29 33.63189 -84.37647 1765 ft 153 kts 264°
2026-05-05 20:29 33.63180 -84.38909 1598 ft 149 kts 262°
2026-05-05 20:29 33.63178 -84.40137 1261 ft 145 kts 264°
2026-05-05 20:30 33.63181 -84.40912 1137 ft 139 kts 265°
2026-05-05 20:30 33.63186 -84.42066 1025 ft 131 kts 262°
2026-05-05 20:30 33.63171 -84.43025 1010 ft 96 kts 269°
2026-05-05 20:30 33.63181 -84.43612 1010 ft 46 kts 271°
2026-05-05 20:31 33.63187 -84.43910 1007 ft 31 kts 273°
2026-05-05 20:31 33.63210 -84.44097 1007 ft 18 kts 289°
2026-05-05 20:31 33.63240 -84.44194 1008 ft 10 kts 295°
2026-05-05 20:31 33.63260 -84.44231 1008 ft 0 kts 309°
2026-05-05 20:32 33.63260 -84.44232 1008 ft 1 kts 309°